Time,TemperatureF,DewpointF,PressureIn,WindDirection,WindDirectionDegrees,WindSpeedMPH,WindSpeedGustMPH,Humidity,HourlyPrecipIn,Conditions,Clouds,dailyrainin,SoftwareType,DateUTC
2013-04-02 00:03:00,-999.0,-99.9,26.30,North,-999,-999.0,-999.0,-999,0.00,,,0.00,weatherlink.com 1.10,2013-04-02 04:03:00,
2013-04-02 00:18:00,-999.0,-99.9,26.29,North,-999,-999.0,-999.0,-999,0.00,,,0.00,weatherlink.com 1.10,2013-04-02 04:18:00,
2013-04-02 00:33:00,-999.0,-99.9,26.29,North,-999,-999.0,-999.0,-999,0.00,,,0.00,weatherlink.com 1.10,2013-04-02 04:33:00,
2013-04-02 00:48:00,-999.0,-99.9,26.30,North,-999,-999.0,-999.0,-999,0.00,,,0.00,weatherlink.com 1.10,2013-04-02 04:48:00,
2013-04-02 01:03:00,-999.0,-99.9,26.30,North,-999,-999.0,-999.0,-999,0.00,,,0.00,weatherlink.com 1.10,2013-04-02 05:03:00,
2013-04-02 01:18:00,-999.0,-99.9,26.30,North,-999,-999.0,-999.0,-999,0.00,,,0.00,weatherlink.com 1.10,2013-04-02 05:18:00,
2013-04-02 01:34:00,-999.0,-99.9,26.30,North,-999,-999.0,-999.0,-999,0.00,,,0.00,weatherlink.com 1.10,2013-04-02 05:34:00,
2013-04-02 01:49:00,-999.0,-99.9,26.30,North,-999,-999.0,-999.0,-999,0.00,,,0.00,weatherlink.com 1.10,2013-04-02 05:49:00,
2013-04-02 02:04:00,-999.0,-99.9,26.30,North,-999,-999.0,-999.0,-999,0.00,,,0.00,weatherlink.com 1.10,2013-04-02 06:04:00,
2013-04-02 02:19:00,-999.0,-99.9,26.30,North,-999,-999.0,-999.0,-999,0.00,,,0.00,weatherlink.com 1.10,2013-04-02 06:19:00,
2013-04-02 02:34:00,-999.0,-99.9,26.30,North,-999,-999.0,-999.0,-999,0.00,,,0.00,weatherlink.com 1.10,2013-04-02 06:34:00,
2013-04-02 02:49:00,-999.0,-99.9,26.30,North,-999,-999.0,-999.0,-999,0.00,,,0.00,weatherlink.com 1.10,2013-04-02 06:49:00,
2013-04-02 03:04:00,-999.0,-99.9,26.30,North,-999,-999.0,-999.0,-999,0.00,,,0.00,weatherlink.com 1.10,2013-04-02 07:04:00,
2013-04-02 03:19:00,-999.0,-99.9,26.30,North,-999,-999.0,-999.0,-999,0.00,,,0.00,weatherlink.com 1.10,2013-04-02 07:19:00,
2013-04-02 03:34:00,-999.0,-99.9,26.30,North,-999,-999.0,-999.0,-999,0.00,,,0.00,weatherlink.com 1.10,2013-04-02 07:34:00,
2013-04-02 03:49:00,-999.0,-99.9,26.31,North,-999,-999.0,-999.0,-999,0.00,,,0.00,weatherlink.com 1.10,2013-04-02 07:49:00,
2013-04-02 04:04:00,-999.0,-99.9,26.31,North,-999,-999.0,-999.0,-999,0.00,,,0.00,weatherlink.com 1.10,2013-04-02 08:04:00,
2013-04-02 04:19:00,-999.0,-99.9,26.31,North,-999,-999.0,-999.0,-999,0.00,,,0.00,weatherlink.com 1.10,2013-04-02 08:19:00,
2013-04-02 04:34:00,-999.0,-99.9,26.31,North,-999,-999.0,-999.0,-999,0.00,,,0.00,weatherlink.com 1.10,2013-04-02 08:34:00,
2013-04-02 04:49:00,-999.0,-99.9,26.32,North,-999,-999.0,-999.0,-999,0.00,,,0.00,weatherlink.com 1.10,2013-04-02 08:49:00,
2013-04-02 05:05:00,-999.0,-99.9,26.32,North,-999,-999.0,-999.0,-999,0.00,,,0.00,weatherlink.com 1.10,2013-04-02 09:05:00,
2013-04-02 05:20:00,-999.0,-99.9,26.33,North,-999,-999.0,-999.0,-999,0.00,,,0.00,weatherlink.com 1.10,2013-04-02 09:20:00,
2013-04-02 05:35:00,-999.0,-99.9,26.33,North,-999,-999.0,-999.0,-999,0.00,,,0.00,weatherlink.com 1.10,2013-04-02 09:35:00,
2013-04-02 05:50:00,-999.0,-99.9,26.34,North,-999,-999.0,-999.0,-999,0.00,,,0.00,weatherlink.com 1.10,2013-04-02 09:50:00,
2013-04-02 06:05:00,-999.0,-99.9,26.35,North,-999,-999.0,-999.0,-999,0.00,,,0.00,weatherlink.com 1.10,2013-04-02 10:05:00,
2013-04-02 06:20:00,-999.0,-99.9,26.35,North,-999,-999.0,-999.0,-999,0.00,,,0.00,weatherlink.com 1.10,2013-04-02 10:20:00,
2013-04-02 06:35:00,-999.0,-99.9,26.35,North,-999,-999.0,-999.0,-999,0.00,,,0.00,weatherlink.com 1.10,2013-04-02 10:35:00,
2013-04-02 06:50:00,-999.0,-99.9,26.36,North,-999,-999.0,-999.0,-999,0.00,,,0.00,weatherlink.com 1.10,2013-04-02 10:50:00,
2013-04-02 07:05:00,-999.0,-99.9,26.37,North,-999,-999.0,-999.0,-999,0.00,,,0.00,weatherlink.com 1.10,2013-04-02 11:05:00,
2013-04-02 07:20:00,-999.0,-99.9,26.38,North,-999,-999.0,-999.0,-999,0.00,,,0.00,weatherlink.com 1.10,2013-04-02 11:20:00,
2013-04-02 07:35:00,-999.0,-99.9,26.38,North,-999,-999.0,-999.0,-999,0.00,,,0.00,weatherlink.com 1.10,2013-04-02 11:35:00,
2013-04-02 07:50:00,30.4,22.0,26.38,NNW,327,4.0,10.0,70,0.00,,,0.00,weatherlink.com 1.10,2013-04-02 11:50:00,
2013-04-02 08:05:00,30.6,21.0,26.39,NNW,338,7.0,14.0,68,0.00,,,0.00,weatherlink.com 1.10,2013-04-02 12:05:00,
2013-04-02 08:20:00,30.1,20.0,26.39,NNW,338,7.0,15.0,65,0.00,,,0.00,weatherlink.com 1.10,2013-04-02 12:20:00,
2013-04-02 08:35:00,30.3,19.0,26.39,NW,322,7.0,14.0,64,0.00,,,0.00,weatherlink.com 1.10,2013-04-02 12:35:00,
2013-04-02 08:50:00,30.7,19.0,26.40,North,350,8.0,13.0,63,0.00,,,0.00,weatherlink.com 1.10,2013-04-02 12:50:00,
2013-04-02 09:06:00,30.9,19.0,26.40,NNW,329,6.0,13.0,62,0.00,,,0.00,weatherlink.com 1.10,2013-04-02 13:06:00,
2013-04-02 09:21:00,31.5,19.0,26.40,NW,325,7.0,16.0,59,0.00,,,0.00,weatherlink.com 1.10,2013-04-02 13:21:00,
2013-04-02 09:36:00,32.1,19.0,26.40,WNW,302,8.0,14.0,59,0.00,,,0.00,weatherlink.com 1.10,2013-04-02 13:36:00,
2013-04-02 09:51:00,32.1,18.0,26.40,NW,317,5.0,16.0,56,0.00,,,0.00,weatherlink.com 1.10,2013-04-02 13:51:00,
2013-04-02 10:06:00,33.1,18.0,26.41,West,281,5.0,16.0,54,0.00,,,0.00,weatherlink.com 1.10,2013-04-02 14:06:00,
2013-04-02 10:21:00,33.7,17.0,26.41,WNW,303,1.0,13.0,51,0.00,,,0.00,weatherlink.com 1.10,2013-04-02 14:21:00,
2013-04-02 11:21:00,35.6,14.0,26.42,NNW,339,16.0,19.0,42,0.00,,,0.00,weatherlink.com 1.10,2013-04-02 15:21:00,
2013-04-02 11:51:00,36.6,11.0,26.43,North,349,8.0,16.0,35,0.00,,,0.00,weatherlink.com 1.10,2013-04-02 15:51:00,
2013-04-02 12:06:00,36.9,11.0,26.42,North,360,10.0,20.0,34,0.00,,,0.00,weatherlink.com 1.10,2013-04-02 16:06:00,
2013-04-02 12:21:00,37.8,7.0,26.42,NW,321,11.0,21.0,28,0.00,,,0.00,weatherlink.com 1.10,2013-04-02 16:21:00,
2013-04-02 12:36:00,38.0,10.0,26.41,NNW,344,19.0,29.0,31,0.00,,,0.00,weatherlink.com 1.10,2013-04-02 16:36:00,
2013-04-02 12:51:00,38.3,13.0,26.41,NNW,334,13.0,22.0,35,0.00,,,0.00,weatherlink.com 1.10,2013-04-02 16:51:00,
2013-04-02 13:21:00,39.8,11.0,26.41,NNW,343,16.0,18.0,31,0.00,,,0.00,weatherlink.com 1.10,2013-04-02 17:21:00,
2013-04-02 13:36:00,39.8,13.0,26.41,North,355,12.0,17.0,34,0.00,,,0.00,weatherlink.com 1.10,2013-04-02 17:36:00,
2013-04-02 13:51:00,40.8,14.0,26.40,NW,310,11.0,19.0,34,0.00,,,0.00,weatherlink.com 1.10,2013-04-02 17:51:00,
2013-04-02 14:06:00,41.6,16.0,26.39,NNW,342,14.0,18.0,35,0.00,,,0.00,weatherlink.com 1.10,2013-04-02 18:06:00,
2013-04-02 14:36:00,41.9,15.0,26.38,NNW,328,12.0,19.0,33,0.00,,,0.00,weatherlink.com 1.10,2013-04-02 18:36:00,
2013-04-02 14:51:00,41.9,15.0,26.38,NNW,327,10.0,18.0,33,0.00,,,0.00,weatherlink.com 1.10,2013-04-02 18:51:00,
2013-04-02 15:06:00,42.6,17.0,26.38,NNW,331,10.0,15.0,35,0.00,,,0.00,weatherlink.com 1.10,2013-04-02 19:06:00,
2013-04-02 15:21:00,43.2,14.0,26.38,NNW,331,16.0,20.0,31,0.00,,,0.00,weatherlink.com 1.10,2013-04-02 19:21:00,
2013-04-02 15:36:00,42.9,16.0,26.37,North,5,10.0,17.0,34,0.00,,,0.00,weatherlink.com 1.10,2013-04-02 19:36:00,
2013-04-02 16:06:00,44.9,16.0,26.37,North,360,4.0,16.0,31,0.00,,,0.00,weatherlink.com 1.10,2013-04-02 20:06:00,
2013-04-02 16:21:00,44.5,15.0,26.37,NNW,340,10.0,17.0,30,0.00,,,0.00,weatherlink.com 1.10,2013-04-02 20:21:00,
2013-04-02 16:52:00,44.1,11.0,26.37,WNW,298,8.0,23.0,26,0.00,,,0.00,weatherlink.com 1.10,2013-04-02 20:52:00,
2013-04-02 17:06:00,44.3,13.0,26.36,NNW,346,11.0,19.0,28,0.00,,,0.00,weatherlink.com 1.10,2013-04-02 21:06:00,
2013-04-02 17:36:00,43.8,15.0,26.37,NNW,345,5.0,16.0,31,0.00,,,0.00,weatherlink.com 1.10,2013-04-02 21:36:00,
2013-04-02 18:07:00,43.6,12.0,26.38,NNW,340,11.0,13.0,28,0.00,,,0.00,weatherlink.com 1.10,2013-04-02 22:07:00,
2013-04-02 18:21:00,42.6,14.0,26.39,NW,315,7.0,17.0,31,0.00,,,0.00,weatherlink.com 1.10,2013-04-02 22:21:00,
2013-04-02 18:51:00,41.8,16.0,26.39,NW,325,7.0,11.0,35,0.00,,,0.00,weatherlink.com 1.10,2013-04-02 22:51:00,
2013-04-02 19:06:00,41.5,16.0,26.39,West,272,2.0,9.0,35,0.00,,,0.00,weatherlink.com 1.10,2013-04-02 23:06:00,
2013-04-02 19:21:00,41.1,15.0,26.39,WNW,290,3.0,7.0,35,0.00,,,0.00,weatherlink.com 1.10,2013-04-02 23:21:00,
2013-04-02 19:37:00,-999.0,-99.9,26.40,North,-999,-999.0,-999.0,-999,0.00,,,0.00,weatherlink.com 1.10,2013-04-02 23:37:00,
2013-04-02 20:07:00,-999.0,-99.9,26.39,North,-999,-999.0,-999.0,-999,0.00,,,0.00,weatherlink.com 1.10,2013-04-03 00:07:00,
2013-04-02 20:22:00,-999.0,-99.9,26.39,North,-999,-999.0,-999.0,-999,0.00,,,0.00,weatherlink.com 1.10,2013-04-03 00:22:00,
2013-04-02 20:37:00,-999.0,-99.9,26.40,North,-999,-999.0,-999.0,-999,0.00,,,0.00,weatherlink.com 1.10,2013-04-03 00:37:00,
2013-04-02 20:52:00,-999.0,-99.9,26.40,North,-999,-999.0,-999.0,-999,0.00,,,0.00,weatherlink.com 1.10,2013-04-03 00:52:00,
2013-04-02 21:07:00,-999.0,-99.9,26.41,North,-999,-999.0,-999.0,-999,0.00,,,0.00,weatherlink.com 1.10,2013-04-03 01:07:00,
2013-04-02 21:22:00,-999.0,-99.9,26.41,North,-999,-999.0,-999.0,-999,0.00,,,0.00,weatherlink.com 1.10,2013-04-03 01:22:00,
2013-04-02 21:37:00,-999.0,-99.9,26.41,North,-999,-999.0,-999.0,-999,0.00,,,0.00,weatherlink.com 1.10,2013-04-03 01:37:00,
2013-04-02 21:52:00,-999.0,-99.9,26.42,North,-999,-999.0,-999.0,-999,0.00,,,0.00,weatherlink.com 1.10,2013-04-03 01:52:00,
2013-04-02 22:07:00,-999.0,-99.9,26.42,North,-999,-999.0,-999.0,-999,0.00,,,0.00,weatherlink.com 1.10,2013-04-03 02:07:00,
2013-04-02 22:37:00,-999.0,-99.9,26.42,North,-999,-999.0,-999.0,-999,0.00,,,0.00,weatherlink.com 1.10,2013-04-03 02:37:00,
2013-04-02 22:52:00,-999.0,-99.9,26.43,North,-999,-999.0,-999.0,-999,0.00,,,0.00,weatherlink.com 1.10,2013-04-03 02:52:00,
2013-04-02 23:07:00,-999.0,-99.9,26.43,North,-999,-999.0,-999.0,-999,0.00,,,0.00,weatherlink.com 1.10,2013-04-03 03:07:00,
2013-04-02 23:23:00,-999.0,-99.9,26.43,North,-999,-999.0,-999.0,-999,0.00,,,0.00,weatherlink.com 1.10,2013-04-03 03:23:00,
2013-04-02 23:38:00,-999.0,-99.9,26.43,North,-999,-999.0,-999.0,-999,0.00,,,0.00,weatherlink.com 1.10,2013-04-03 03:38:00,
2013-04-02 23:53:00,-999.0,-99.9,26.42,North,-999,-999.0,-999.0,-999,0.00,,,0.00,weatherlink.com 1.10,2013-04-03 03:53:00,